• In Netherlands
  • List of Countries
  • For 7 days
  • Water Temperature
  • Satellite Maps
  • Weather Map
  • Weather Widgets
  • user-avatar
    Login

    Hourly Weather Wurzburg

    Today, 11 December, Monday

    Time Temperature Precipitation Wind Pressure Humidity
    00:00 +4°C° 0.5 mm 7 mps 721 mmHg 90%
    01:00 +4°C° 0.5 mm 7 mps 721 mmHg 88%
    02:00 +4°C° 0.2 mm 6 mps 722 mmHg 90%
    03:00 +3°C° 0.2 mm 5 mps 722 mmHg 92%
    04:00 +4°C° 0.2 mm 4 mps 722 mmHg 93%
    05:00 +4°C° 0.2 mm 4 mps 722 mmHg 94%
    06:00 +3°C° 0.2 mm 3 mps 722 mmHg 95%
    07:00 +4°C° 0.2 mm 2 mps 722 mmHg 96%
    08:00 +3°C° 1.5 mm 3 mps 721 mmHg 96%
    09:00 +3°C° 1.5 mm 3 mps 721 mmHg 95%
    10:00 +3°C° 1.5 mm 3 mps 721 mmHg 95%
    11:00 +3°C° 1.4 mm 3 mps 720 mmHg 94%
    12:00 +3°C° 1.4 mm 4 mps 720 mmHg 93%
    13:00 +3°C° 1.4 mm 4 mps 719 mmHg 92%
    14:00 +3°C° 0.7 mm 3 mps 719 mmHg 92%
    15:00 +3°C° 0.7 mm 3 mps 720 mmHg 92%
    16:00 +3°C° 0.7 mm 3 mps 720 mmHg 92%
    17:00 +3°C° 0.4 mm 3 mps 721 mmHg 93%
    18:00 +4°C° 0.4 mm 3 mps 722 mmHg 93%
    19:00 +4°C° 0.4 mm 3 mps 722 mmHg 93%
    20:00 +4°C° 0.3 mm 4 mps 723 mmHg 91%
    21:00 +4°C° 0.3 mm 4 mps 723 mmHg 89%
    22:00 +3°C° 0.3 mm 5 mps 723 mmHg 87%
    23:00 +3°C° 0.1 mm 5 mps 724 mmHg 86%

    Tomorrow, 12 December, Tuesday

    Time Temperature Precipitation Wind Pressure Humidity
    00:00 +3°C° 0.1 mm 5 mps 724 mmHg 85%
    01:00 +3°C° 0.1 mm 6 mps 725 mmHg 84%
    02:00 +3°C° 0.1 mm 6 mps 726 mmHg 83%
    03:00 +2°C° 0.1 mm 7 mps 726 mmHg 82%
    04:00 +1°C° 0.1 mm 8 mps 727 mmHg 81%
    05:00 +2°C° 0.1 mm 7 mps 729 mmHg 82%
    06:00 0°C° 0.1 mm 7 mps 731 mmHg 83%
    07:00 0°C° 0.1 mm 7 mps 732 mmHg 84%
    08:00 +1°C° 0.1 mm 6 mps 734 mmHg 82%
    09:00 +1°C° 0.1 mm 6 mps 735 mmHg 81%
    10:00 +1°C° 0.1 mm 6 mps 737 mmHg 80%
    11:00 +1°C° 0 mm 6 mps 738 mmHg 79%
    12:00 +1°C° 0 mm 6 mps 738 mmHg 78%
    13:00 +2°C° 0 mm 6 mps 739 mmHg 77%
    14:00 +1°C° 0 mm 6 mps 740 mmHg 79%
    15:00 +1°C° 0 mm 5 mps 740 mmHg 81%
    16:00 +1°C° 0 mm 5 mps 741 mmHg 82%
    17:00 0°C° 0.1 mm 5 mps 742 mmHg 83%
    18:00 0°C° 0.1 mm 4 mps 743 mmHg 84%
    19:00 -1°C° 0.1 mm 4 mps 743 mmHg 85%
    20:00 -1°C° 0 mm 4 mps 744 mmHg 86%
    21:00 -1°C° 0 mm 4 mps 745 mmHg 87%
    22:00 0°C° 0 mm 3 mps 745 mmHg 89%
    23:00 -1°C° 0 mm 3 mps 746 mmHg 90%

    Day after tomorrow, 13 December, Wednesday

    Time Temperature Precipitation Wind Pressure Humidity
    00:00 -1°C° 0 mm 3 mps 746 mmHg 91%
    01:00 -1°C° 0 mm 3 mps 746 mmHg 93%
    02:00 -1°C° 0 mm 3 mps 746 mmHg 92%
    03:00 -1°C° 0 mm 3 mps 746 mmHg 92%
    04:00 -1°C° 0 mm 3 mps 746 mmHg 91%
    05:00 -2°C° 0 mm 4 mps 745 mmHg 90%
    06:00 -2°C° 0 mm 4 mps 745 mmHg 89%
    07:00 -2°C° 0 mm 4 mps 745 mmHg 88%
    08:00 -1°C° 0 mm 4 mps 745 mmHg 85%
    09:00 -1°C° 0 mm 5 mps 744 mmHg 82%
    10:00 0°C° 0 mm 5 mps 744 mmHg 79%
    11:00 0°C° 0 mm 5 mps 743 mmHg 75%
    12:00 +1°C° 0 mm 5 mps 742 mmHg 72%
    13:00 +2°C° 0 mm 5 mps 741 mmHg 68%
    14:00 +2°C° 0.3 mm 5 mps 740 mmHg 70%
    15:00 +1°C° 0.3 mm 5 mps 740 mmHg 72%
    16:00 +1°C° 0.3 mm 5 mps 739 mmHg 74%
    17:00 +1°C° 0.8 mm 5 mps 738 mmHg 79%
    18:00 +1°C° 0.8 mm 5 mps 738 mmHg 83%
    19:00 +1°C° 0.8 mm 5 mps 737 mmHg 88%
    20:00 +2°C° 0.2 mm 6 mps 737 mmHg 89%
    21:00 +2°C° 0.2 mm 6 mps 736 mmHg 89%
    22:00 +3°C° 0.2 mm 6 mps 736 mmHg 90%
    23:00 +3°C° 0.6 mm 6 mps 735 mmHg 89%

    14 December, Thursday

    Time Temperature Precipitation Wind Pressure Humidity
    00:00 +3°C° 0.6 mm 7 mps 735 mmHg 89%
    01:00 +3°C° 0.6 mm 7 mps 735 mmHg 88%
    02:00 +3°C° 0.9 mm 6 mps 734 mmHg 90%
    03:00 +3°C° 0.9 mm 6 mps 734 mmHg 91%
    04:00 +3°C° 0.9 mm 6 mps 734 mmHg 93%
    05:00 +3°C° 0.1 mm 5 mps 735 mmHg 92%
    06:00 +2°C° 0.1 mm 5 mps 735 mmHg 92%
    07:00 +3°C° 0.1 mm 4 mps 735 mmHg 91%
    08:00 +3°C° 0 mm 4 mps 735 mmHg 91%
    09:00 +2°C° 0 mm 5 mps 734 mmHg 90%
    10:00 +2°C° 0 mm 5 mps 734 mmHg 90%
    11:00 +3°C° 0 mm 5 mps 733 mmHg 87%
    12:00 +4°C° 0 mm 6 mps 732 mmHg 84%
    13:00 +4°C° 0 mm 7 mps 731 mmHg 80%
    14:00 +4°C° 0.2 mm 7 mps 730 mmHg 81%
    15:00 +4°C° 0.2 mm 7 mps 729 mmHg 81%
    16:00 +4°C° 0.2 mm 6 mps 728 mmHg 81%
    17:00 +4°C° 1.6 mm 7 mps 728 mmHg 82%
    18:00 +3°C° 1.6 mm 7 mps 727 mmHg 83%
    19:00 +3°C° 1.6 mm 7 mps 727 mmHg 84%
    20:00 +2°C° 0.9 mm 6 mps 727 mmHg 84%
    21:00 +2°C° 0.9 mm 5 mps 728 mmHg 84%
    22:00 +1°C° 0.9 mm 4 mps 729 mmHg 85%
    23:00 0°C° 0.1 mm 4 mps 729 mmHg 85%

    15 December, Friday

    Time Temperature Precipitation Wind Pressure Humidity
    00:00 0°C° 0.1 mm 4 mps 730 mmHg 85%
    01:00 0°C° 0.1 mm 4 mps 731 mmHg 85%
    02:00 -1°C° 0 mm 4 mps 732 mmHg 86%
    03:00 -1°C° 0 mm 5 mps 732 mmHg 86%
    04:00 -1°C° 0 mm 5 mps 733 mmHg 87%
    05:00 -1°C° 0 mm 5 mps 733 mmHg 87%
    06:00 -1°C° 0 mm 5 mps 734 mmHg 88%
    07:00 -1°C° 0 mm 5 mps 734 mmHg 89%
    08:00 -1°C° 0 mm 5 mps 735 mmHg 88%
    09:00 0°C° 0 mm 4 mps 735 mmHg 88%
    10:00 0°C° 0 mm 4 mps 735 mmHg 87%
    11:00 0°C° 0 mm 4 mps 735 mmHg 86%
    12:00 +1°C° 0 mm 4 mps 735 mmHg 84%
    13:00 +2°C° 0 mm 3 mps 735 mmHg 82%
    14:00 +2°C° 0 mm 3 mps 734 mmHg 84%
    15:00 +2°C° 0 mm 2 mps 734 mmHg 86%
    16:00 +2°C° 0 mm 2 mps 734 mmHg 88%
    17:00 +2°C° 0 mm 2 mps 735 mmHg 89%
    18:00 +1°C° 0 mm 2 mps 735 mmHg 89%
    19:00 +1°C° 0 mm 2 mps 735 mmHg 90%
    20:00 +1°C° 0 mm 2 mps 735 mmHg 91%
    21:00 +1°C° 0 mm 2 mps 735 mmHg 91%
    22:00 -1°C° 0 mm 2 mps 736 mmHg 92%
    23:00 -1°C° 0 mm 2 mps 736 mmHg 91%

    16 December, Saturday

    Time Temperature Precipitation Wind Pressure Humidity
    00:00 +1°C° 0 mm 2 mps 736 mmHg 90%
    01:00 +1°C° 0 mm 2 mps 736 mmHg 89%
    02:00 +1°C° 0.2 mm 2 mps 737 mmHg 90%
    03:00 +1°C° 0.2 mm 2 mps 737 mmHg 91%
    04:00 +1°C° 0.2 mm 2 mps 737 mmHg 91%
    05:00 +1°C° 0.1 mm 2 mps 737 mmHg 92%
    06:00 +1°C° 0.1 mm 2 mps 738 mmHg 93%
    07:00 +1°C° 0.1 mm 2 mps 738 mmHg 94%
    08:00 +1°C° 0.1 mm 2 mps 739 mmHg 94%
    09:00 +1°C° 0.1 mm 2 mps 739 mmHg 93%
    10:00 +1°C° 0.1 mm 2 mps 740 mmHg 93%
    11:00 +1°C° 0 mm 3 mps 740 mmHg 91%
    12:00 +1°C° 0 mm 3 mps 740 mmHg 89%
    13:00 0°C° 0 mm 4 mps 741 mmHg 87%
    14:00 +1°C° 0 mm 3 mps 741 mmHg 88%
    15:00 +1°C° 0 mm 3 mps 741 mmHg 89%
    16:00 +1°C° 0 mm 3 mps 742 mmHg 89%
    17:00 +1°C° 0 mm 3 mps 742 mmHg 90%
    18:00 +1°C° 0 mm 3 mps 743 mmHg 90%
    19:00 +1°C° 0 mm 3 mps 743 mmHg 91%
    20:00 +1°C° 0.1 mm 3 mps 744 mmHg 91%
    21:00 +1°C° 0.1 mm 3 mps 744 mmHg 92%
    22:00 +1°C° 0.1 mm 3 mps 744 mmHg 92%
    23:00 0°C° 0.1 mm 3 mps 744 mmHg 92%
    Show more